Stations météo

réclame
Mon MeteoGroup
Novara/Cameri, Italie (16064): Température de l'air & dewpoint: 14.10.2018 19:00:00 - 20.10.2018 19:00:00 (CEST)Novara/Cameri, Italie (16064): Vitesse du vent: 14.10.2018 19:00:00 - 20.10.2018 19:00:00 (CEST)Novara/Cameri, Italie (16064): Direction du vent: 14.10.2018 19:00:00 - 20.10.2018 19:00:00 (CEST)Novara/Cameri, Italie (16064): reduced air pressure: 14.10.2018 19:00:00 - 20.10.2018 19:00:00 (CEST)Novara/Cameri, Italie (16064): visibility: 14.10.2018 19:00:00 - 20.10.2018 19:00:00 (CEST)Novara/Cameri, Italie (16064): Ensoleillement: 14.10.2018 19:00:00 - 20.10.2018 19:00:00 (CEST)
Date & Time tt [°C] td [°C] ff [km/h] ff [knt] dd ppp [hPa] vv [km] sd [min]
20.10.2018 19:00:00 - - - - - - - -
20.10.2018 18:00:00 - - - - - - - -
20.10.2018 17:00:00 - - - - - - - -
20.10.2018 16:00:00 - - - - - - - -
20.10.2018 15:00:00 - - - - - - - -
20.10.2018 14:00:00 - - - - - - - -
20.10.2018 13:00:00 - - - - - - - -
20.10.2018 12:00:00 - - - - - - - -
20.10.2018 11:00:00 - - - - - - - -
20.10.2018 10:00:00 - - - - - - - -
20.10.2018 09:00:00 - - - - - - - -
20.10.2018 08:00:00 - - - - - - - -
20.10.2018 07:00:00 - - - - - - - -
20.10.2018 06:00:00 - - - - - - - -
20.10.2018 05:00:00 - - - - - - - -
20.10.2018 04:00:00 - - - - - - - -
20.10.2018 03:00:00 - - - - - - - -
20.10.2018 02:00:00 - - - - - - - -
20.10.2018 01:00:00 - - - - - - - -
20.10.2018 00:00:00 - - - - - - - -
19.10.2018 23:00:00 - - - - - - - -
19.10.2018 22:00:00 - - - - - - - -
19.10.2018 21:00:00 - - - - - - - -
19.10.2018 20:00:00 17,2 15,2 2 1 N 1019,0 10 0
19.10.2018 19:00:00 21,0 16,0 2 1 ESE - 10 -
19.10.2018 18:00:00 22,0 15,0 8 4 ESE - 10 -
19.10.2018 17:00:00 23,6 13,5 4 2 N 1017,5 20 54
19.10.2018 16:00:00 24,0 14,0 5 3 S - 10 -
19.10.2018 15:00:00 23,0 14,0 8 4 SW - 10 -
19.10.2018 14:00:00 23,0 13,2 8 4 S 1018,1 20 60
19.10.2018 13:00:00 22,0 13,0 5 3 - - 10 -
19.10.2018 12:00:00 20,0 13,0 2 1 - - 10 -
19.10.2018 11:00:00 17,8 13,3 8 4 WNW 1019,0 20 48
19.10.2018 10:00:00 15,0 13,0 8 4 NNW - 10 -
19.10.2018 09:00:00 12,0 12,0 0 0 N - 6 -
19.10.2018 08:00:00 12,2 12,0 4 2 WNW 1018,5 5 -
19.10.2018 07:00:00 13,0 12,0 5 3 N - 7 -
19.10.2018 06:00:00 - - - - - - - -
19.10.2018 05:00:00 - - - - - - - -
19.10.2018 04:00:00 - - - - - - - -
19.10.2018 03:00:00 - - - - - - - -
19.10.2018 02:00:00 - - - - - - - -
19.10.2018 01:00:00 - - - - - - - -
19.10.2018 00:00:00 - - - - - - - -
18.10.2018 23:00:00 - - - - - - - -
18.10.2018 22:00:00 - - - - - - - -
18.10.2018 21:00:00 - - - - - - - -
18.10.2018 20:00:00 17,4 14,5 2 1 N 1015,8 10 0
18.10.2018 19:00:00 21,0 14,0 4 2 - - 10 -
18.10.2018 18:00:00 22,0 12,0 8 4 WSW - 10 -
18.10.2018 17:00:00 24,2 12,5 4 2 - 1015,3 10 60
18.10.2018 16:00:00 24,0 12,0 4 2 - - 10 -
18.10.2018 15:00:00 23,0 13,0 4 2 - - 9 -
18.10.2018 14:00:00 21,8 12,7 4 2 N 1016,7 8 60
18.10.2018 13:00:00 21,0 12,0 5 3 - - 8 -
18.10.2018 12:00:00 19,0 13,0 5 3 - - 8 -
18.10.2018 11:00:00 17,0 13,1 8 4 N 1018,1 8 30
18.10.2018 10:00:00 15,0 13,0 9 5 N - 7 -
18.10.2018 09:00:00 13,0 12,0 9 5 N - 5 -
18.10.2018 08:00:00 11,4 10,9 9 5 NNW 1018,1 2,0 -
18.10.2018 07:00:00 10,0 10,0 8 4 N - 2,0 -
18.10.2018 06:00:00 - - - - - - - -
18.10.2018 05:00:00 - - - - - - - -
18.10.2018 04:00:00 - - - - - - - -
18.10.2018 03:00:00 - - - - - - - -
18.10.2018 02:00:00 - - - - - - - -
18.10.2018 01:00:00 - - - - - - - -
18.10.2018 00:00:00 - - - - - - - -
17.10.2018 23:00:00 - - - - - - - -
17.10.2018 22:00:00 - - - - - - - -
17.10.2018 21:00:00 - - - - - - - -
17.10.2018 20:00:00 17,6 13,7 0 0 N 1018,8 4,0 0
17.10.2018 19:00:00 19,0 13,0 0 0 N - 4,0 -
17.10.2018 18:00:00 19,0 13,0 4 2 SE - 5 -
17.10.2018 17:00:00 19,8 12,5 5 3 SE 1018,3 5 0
17.10.2018 16:00:00 20,0 12,0 4 2 - - 5 -
17.10.2018 15:00:00 20,0 12,0 9 5 S - 5 -
17.10.2018 14:00:00 19,4 11,9 5 3 SSW 1019,2 10 0
17.10.2018 13:00:00 19,0 12,0 4 2 - - 10 -
17.10.2018 12:00:00 18,0 11,0 5 3 NNW - 10 -
17.10.2018 11:00:00 16,8 12,1 9 5 NNW 1020,4 10 0
17.10.2018 10:00:00 15,0 12,0 11 6 NNW - 10 -
17.10.2018 09:00:00 13,0 11,0 9 5 N - 8 -
17.10.2018 08:00:00 11,6 11,0 8 4 NNW 1020,7 5 -
17.10.2018 07:00:00 11,0 11,0 4 2 N - 7 -
17.10.2018 06:00:00 12,0 12,0 5 3 NW - 7 -
17.10.2018 05:00:00 - - - - - - - -
17.10.2018 04:00:00 - - - - - - - -
17.10.2018 03:00:00 - - - - - - - -
17.10.2018 02:00:00 - - - - - - - -
17.10.2018 01:00:00 - - - - - - - -
17.10.2018 00:00:00 - - - - - - - -
16.10.2018 23:00:00 - - - - - - - -
16.10.2018 22:00:00 - - - - - - - -
16.10.2018 21:00:00 - - - - - - - -
16.10.2018 20:00:00 18,4 12,8 4 2 N 1020,8 6 0
16.10.2018 19:00:00 19,0 13,0 8 4 SSE - 6 -
16.10.2018 18:00:00 21,0 13,0 2 1 - - 10 -
16.10.2018 17:00:00 21,6 11,9 5 3 SSE 1020,0 10 60
16.10.2018 16:00:00 22,0 12,0 8 4 SE - 10 -
16.10.2018 15:00:00 22,0 12,0 4 2 - - 10 -
16.10.2018 14:00:00 20,6 11,8 5 3 N 1020,7 10 60
16.10.2018 13:00:00 20,0 12,0 4 2 - - 6 -
16.10.2018 12:00:00 19,0 13,0 5 3 N - 6 -
16.10.2018 11:00:00 16,2 13,1 9 5 NNW 1021,4 6 0
16.10.2018 10:00:00 15,0 13,0 9 5 N - 6 -
16.10.2018 09:00:00 14,0 13,0 5 3 N - 4,0 -
16.10.2018 08:00:00 13,6 13,1 5 3 NNW 1020,7 4,0 -
16.10.2018 07:00:00 14,0 14,0 9 5 NNW - 6 -
16.10.2018 06:00:00 - - - - - - - -
16.10.2018 05:00:00 - - - - - - - -
16.10.2018 04:00:00 - - - - - - - -
16.10.2018 03:00:00 - - - - - - - -
16.10.2018 02:00:00 - - - - - - - -
16.10.2018 01:00:00 - - - - - - - -
16.10.2018 00:00:00 - - - - - - - -
15.10.2018 23:00:00 - - - - - - - -
15.10.2018 22:00:00 - - - - - - - -
15.10.2018 21:00:00 - - - - - - - -
15.10.2018 20:00:00 16,6 13,9 4 2 NW 1019,8 3,0 0
15.10.2018 19:00:00 18,0 14,0 5 3 SSW - 3,5 -
15.10.2018 18:00:00 19,0 13,0 8 4 S - 6 -
15.10.2018 17:00:00 20,8 10,9 11 6 SE 1018,5 8 54
15.10.2018 16:00:00 21,0 10,0 13 7 ENE - 8 -
15.10.2018 15:00:00 21,0 12,0 8 4 NNE - 8 -
15.10.2018 14:00:00 20,0 11,5 11 6 NNW 1018,8 8 42
15.10.2018 13:00:00 19,0 12,0 9 5 NNW - 8 -
15.10.2018 12:00:00 18,0 12,0 8 4 NNE - 8 -
15.10.2018 11:00:00 17,0 12,3 8 4 N 1019,7 10 60
15.10.2018 10:00:00 16,0 13,0 11 6 N - 6 -
15.10.2018 09:00:00 13,0 12,0 4 2 - - 6 -
15.10.2018 08:00:00 11,6 8,8 9 5 NNW 1019,3 5 -
15.10.2018 07:00:00 13,0 11,0 9 5 N - 10 -
15.10.2018 06:00:00 - - - - - - - -
15.10.2018 05:00:00 - - - - - - - -
15.10.2018 04:00:00 - - - - - - - -
15.10.2018 03:00:00 - - - - - - - -
15.10.2018 02:00:00 - - - - - - - -
15.10.2018 01:00:00 - - - - - - - -
15.10.2018 00:00:00 - - - - - - - -
14.10.2018 23:00:00 - - - - - - - -
14.10.2018 22:00:00 - - - - - - - -
14.10.2018 21:00:00 - - - - - - - -
14.10.2018 20:00:00 - - - - - - - -
14.10.2018 19:00:00 - - - - - - - -

tt = Température de l'air
td = dewpoint
ff = Vitesse du vent
dd = Direction du vent
ppp = reduced air pressure
vv = visibility
sd = Ensoleillement

stations d'obs. à proximité